Regional Weather Roundup
Issued by NWS

Home | Current Version | Previous Version | Graphics & Text | Print | Product List | Glossary Off
Versions: 1 2 3 4 5 6 7 8 9 10 11 12 13 14 15 16 17 18 19 20 21 22 23 24 25 26 27 28 29 30 31 32 33 34 35 36 37 38 39 40 41 42 43 44 45 46 47 48 49 50

000
ASUS43 KDMX 282308
RWRIA

WEATHER ROUNDUP FOR IOWA
NATIONAL WEATHER SERVICE DES MOINES IA
600 PM CDT THU APR 28 2016

NOTE: "FAIR" INDICATES FEW OR NO CLOUDS BELOW 12,000 FEET WITH NO
SIGNIFICANT WEATHER AND/OR OBSTRUCTIONS TO VISIBILITY.

* - THESE STATIONS ARE NOT NWS STATIONS...THUS NOT UNDER NWS
QUALITY CONTROL.  THEY ALSO DO NOT REPORT WEATHER SUCH
AS PRECIPITATION OR FOG.

IAZ001>003-012>014-020>022-031>034-043>046-290000-
   NORTHWEST IOWA

CITY           SKY/WX    TMP DP  RH WIND       PRES   REMARKS
CARROLL *      CLOUDY    46  43  87 N14       29.99R
CHEROKEE *     CLOUDY    45  41  87 N5        30.01R
DENISON *      CLOUDY    46  41  81 NW12      29.99R
LE MARS *      CLOUDY    45  39  81 N9        30.04R
ORANGE CITY *  CLOUDY    43  37  81 N6        30.03R
SHELDON *      CLOUDY    41  39  93 N7        30.02R
SIOUX CITY     CLOUDY    46  39  76 N12       30.04R
SPENCER        CLOUDY    43  37  79 N7        30.02R
STORM LAKE *   CLOUDY    43  41  93 N8        30.01R
$$

IAZ055>058-069>071-079>083-090>094-290000-
   SOUTHWEST IOWA

CITY           SKY/WX    TMP DP  RH WIND       PRES   REMARKS
ATLANTIC *     CLOUDY    48  43  81 NW13      30.00S
AUDUBON *      PTSUNNY   46  43  87 NW7       30.01R
CLARINDA *       N/A    N/A N/A N/A MISG        N/A
COUNCIL BLFS * CLOUDY    48  43  81 NW8       30.03R
CRESTON *      CLOUDY    50  45  81 NW15      30.00R
HARLAN  *      CLOUDY    46  43  87 NW13      30.04R
LAMONI         CLOUDY    53  45  74 NW15      29.97R
RED OAK *      CLOUDY    50  45  81 NW13      30.01R
SHENANDOAH *   CLOUDY    52  45  76 NW10      30.01S
$$

IAZ047>049-059>061-072>074-084-290000-
   CENTRAL IOWA

CITY           SKY/WX    TMP DP  RH WIND       PRES   REMARKS
AMES           CLOUDY    50  47  89 N10       29.96R
ANKENY *       DRIZZLE   52  52 100 NW13G20   29.95R
BOONE *        CLOUDY    48  46  93 N13       29.96R FOG
CHARITON *     PTSUNNY   54  46  76 W14       29.96R
DES MOINES     LGT RAIN  52  48  86 W14       29.96R FOG
GRINNELL*      CLOUDY    54  48  82 NW6       29.94R
KNOXVILLE *    CLOUDY    54  46  76 W17       29.93R
MARSHALLTOWN   CLOUDY    51  48  89 N15       29.94R
NEWTON *       CLOUDY    54  52  94 W9        29.94R FOG
PELLA *        PTSUNNY   54  48  82 W12       29.95R
$$

IAZ004>006-015-016-023>025-035-036-290000-
   NORTH CENTRAL IOWA

CITY           SKY/WX    TMP DP  RH WIND       PRES   REMARKS
ALGONA *       CLOUDY    45  41  87 N7        30.00R
CLARION *      CLOUDY    46  45  93 NE10      29.97R FOG
ESTHERVILLE    CLOUDY    41  38  89 NE9       30.01R
FORT DODGE *   CLOUDY    46  41  81 N7        29.99R
MASON CITY     CLOUDY    44  42  93 NE10      29.99R
FOREST CITY *  CLOUDY    43  41  93 NE6       29.99R
WEBSTER CITY * CLOUDY    48  46  93 N12       29.96R
IOWA FALLS *   CLOUDY    48  45  87 N7        29.97R
$$

IAZ007>011-017>019-026>030-037>042-050>054-066-290000-
   NORTHEAST IOWA

CITY           SKY/WX    TMP DP  RH WIND       PRES   REMARKS
CEDAR RAPIDS   LGT RAIN  51  51 100 N6        29.92R FOG
CHARLES CITY * CLOUDY    43  43 100 NE10      29.98R FOG
CLINTON *      CLOUDY    50  48  93 E9        29.94R FOG
DECORAH *      CLOUDY    41  41 100 E6        29.98R FOG
DUBUQUE        CLOUDY    44  43  96 NE10      29.95S FOG
MONTICELLO *   PTSUNNY   46  46 100 NE7       29.94R FOG
OELWEIN *      CLOUDY    46  46 100 NE10      29.96R
WATERLOO       CLOUDY    47  44  90 NE13      29.95R
$$

IAZ064-065-067-068-078-290000-
   EAST CENTRAL IOWA

CITY           SKY/WX    TMP DP  RH WIND       PRES   REMARKS
DAVENPORT      CLOUDY    52  48  86 CALM      29.95R FOG
IOWA CITY      CLOUDY    55  47  74 W9        29.94R
MT. PLEASANT * CLOUDY    59  48  67 W8        29.94R
MUSCATINE *    CLOUDY    57  46  67 NW7       29.93R
QUAD CITIES    CLOUDY    57  46  66 W6        29.92R
$$

IAZ062-063-075>077-085>089-095>099-290000-
   SOUTHEAST IOWA

CITY           SKY/WX    TMP DP  RH WIND       PRES   REMARKS
BURLINGTON     CLOUDY    58  48  69 W8        29.93R
FAIRFIELD *    CLOUDY    55  48  76 W12       29.94R
FORT MADISON * CLOUDY    57  48  72 W8        29.95R
KEOKUK *       CLOUDY    59  46  63 W12       29.93R
OSKALOOSA *    CLOUDY    54  48  82 W6        29.94R
OTTUMWA        CLOUDY    55  48  77 W8        29.94R
WASHINGTON *   CLOUDY    57  50  77 W8        29.94R
$$

ABBREVIATIONS USED IN REMARKS
   TC - TEMPERATURES IN CELSIUS
  WCI - WIND CHILL INDEX
   HX - HEAT INDEX
  VSB - VISIBILITY
$$





USA.gov is the U.S. government's official web portal to all federal, state and local government web resources and services.